Date String (YYYY-MM-DD hh:mm:ss) UTC,Instrument flags,Ambient pressure (hPa),Sample flow (lpm),Bypass flow (lpm),Sample temperature (°C),Ambient temperature (°C),ASC tube jacket temperature (°C),LED temperature (°C),Box temperature (°C),Sample RH (%),Span deviation,Mass concentration (μg/m³),Mass concentration (μg/m³),Mass concentration (μg/m³)
DateTimeUTC,F1_M11,P_M11,Q1_M11,Q2_M11,T1_M11,T2_M11,T3_M11,T4_M11,T5_M11,U1_M11,ZSPAN_M11,X0_M11,X2_M11,X1_M11
2022-09-19 07:00:00,,0825.8,5.01,0.00,30.4,29.2,00.0,39.1,32.2,21.7,0000.0,0012.92,0006.32,0005.55
2022-09-19 07:01:00,,0825.9,5.00,0.00,30.4,29.2,00.0,39.1,32.2,21.7,0000.0,0012.67,0006.35,0005.57
2022-09-19 07:02:00,,0826.2,4.99,0.00,30.4,29.2,00.0,39.1,32.3,21.6,0000.0,0012.29,0006.37,0005.58
2022-09-19 07:03:00,,0826.1,5.00,0.00,30.4,29.2,00.0,39.1,32.3,21.6,0000.0,0012.24,0006.41,0005.56
2022-09-19 07:04:00,,0825.8,5.00,0.00,30.4,29.2,00.0,39.1,32.3,21.6,0000.0,0011.71,0006.40,0005.54
2022-09-19 07:05:00,,0825.8,5.01,0.00,30.5,29.3,00.0,39.1,32.3,21.7,0000.0,0011.60,0006.33,0005.53
2022-09-19 07:06:00,,0825.8,5.01,0.00,30.5,29.3,00.0,39.2,32.3,21.7,0000.0,0012.11,0006.31,0005.52
2022-09-19 07:07:00,,0825.8,4.99,0.00,30.5,29.3,00.0,39.2,32.4,21.7,0000.0,0012.10,0006.31,0005.51
2022-09-19 07:08:00,,0825.8,5.01,0.00,30.5,28.1,00.0,39.2,32.3,21.8,0000.0,0011.48,0006.29,0005.50
2022-09-19 07:09:00,,0825.9,5.00,0.00,30.5,27.0,00.0,39.1,32.2,21.8,0000.0,0011.45,0006.26,0005.49
2022-09-19 07:10:00,,0825.9,5.00,0.00,30.4,26.9,00.0,39.1,32.0,21.9,0000.0,0011.57,0006.26,0005.46
2022-09-19 07:11:00,,0825.8,5.00,0.00,30.3,27.1,00.0,39.0,31.8,22.1,0000.0,0011.48,0006.23,0005.43
2022-09-19 07:12:00,,0825.8,5.00,0.00,30.2,27.5,00.0,39.0,31.8,22.3,0000.0,0011.31,0006.19,0005.41
2022-09-19 07:13:00,,0825.8,5.00,0.00,30.2,27.8,00.0,39.0,31.8,22.4,0000.0,0011.73,0006.18,0005.40
2022-09-19 07:14:00,,0825.8,4.99,0.00,30.2,28.0,00.0,39.0,31.9,22.0,0000.0,0011.83,0006.18,0005.40
2022-09-19 07:15:00,,0825.7,4.99,0.00,30.2,28.2,00.0,38.9,31.9,22.2,0000.0,0011.96,0006.20,0005.41
2022-09-19 07:16:00,,0825.8,5.01,0.00,30.2,28.4,00.0,38.9,31.9,22.1,0000.0,0012.20,0006.23,0005.40
2022-09-19 07:17:00,,0825.8,4.99,0.00,30.2,28.5,00.0,38.9,31.9,22.0,0000.0,0011.79,0006.22,0005.40
2022-09-19 07:18:00,,0825.8,5.01,0.00,30.2,28.6,00.0,38.9,32.0,21.6,0000.0,0011.50,0006.17,0005.38
2022-09-19 07:19:00,,0825.7,4.99,0.00,30.2,28.7,00.0,38.9,32.0,21.2,0000.0,0011.55,0006.15,0005.35
2022-09-19 07:20:00,,0825.8,5.01,0.00,30.2,28.8,00.0,39.0,32.0,21.1,0000.0,0011.49,0006.12,0005.32
2022-09-19 07:21:00,,0825.8,4.99,0.00,30.2,28.8,00.0,39.0,32.0,21.0,0000.0,0011.19,0006.06,0005.29
2022-09-19 07:22:00,,0826.1,5.01,0.00,30.2,28.9,00.0,39.0,32.1,20.6,0000.0,0011.55,0006.06,0005.26
2022-09-19 07:23:00,,0825.9,4.98,0.00,30.2,28.9,00.0,39.0,32.1,20.9,0000.0,0011.99,0006.06,0005.23
2022-09-19 07:24:00,,0825.9,4.99,0.00,30.3,29.0,00.0,39.0,32.1,20.9,0000.0,0012.17,0006.03,0005.21
2022-09-19 07:25:00,,0826.3,5.01,0.00,30.3,29.0,00.0,39.0,32.1,20.7,0000.0,0012.22,0006.01,0005.18
2022-09-19 07:26:00,,0825.9,4.99,0.00,30.3,29.0,00.0,39.0,32.1,20.5,0000.0,0012.67,0005.99,0005.16
2022-09-19 07:27:00,,0825.9,4.99,0.00,30.3,29.1,00.0,39.0,32.2,20.1,0000.0,0012.14,0005.91,0005.11
2022-09-19 07:28:00,,0826.0,5.01,0.00,30.4,29.1,00.0,39.0,32.2,20.0,0000.0,0011.97,0005.86,0005.06
2022-09-19 07:29:00,,0825.9,5.00,0.00,30.4,29.1,00.0,39.1,32.2,20.1,0000.0,0012.54,0005.87,0005.04
2022-09-19 07:30:00,,0825.8,5.01,0.00,30.4,29.1,00.0,39.1,32.2,20.4,0000.0,0012.70,0005.86,0005.03
2022-09-19 07:31:00,,0825.8,5.00,0.00,30.4,29.2,00.0,39.1,32.2,20.6,0000.0,0013.10,0005.83,0005.04
2022-09-19 07:32:00,,0825.7,5.00,0.00,30.4,29.2,00.0,39.1,32.3,20.6,0000.0,0013.46,0005.84,0005.03
2022-09-19 07:33:00,,0826.0,5.00,0.00,30.5,29.2,00.0,39.1,32.3,20.3,0000.0,0013.50,0005.83,0005.03
2022-09-19 07:34:00,,0825.7,5.00,0.00,30.5,29.3,00.0,39.1,32.3,20.3,0000.0,0013.29,0005.80,0005.01
2022-09-19 07:35:00,,0825.7,5.00,0.00,30.5,29.3,00.0,39.2,32.3,20.4,0000.0,0012.81,0005.80,0005.00
2022-09-19 07:36:00,,0825.7,5.02,0.00,30.5,29.3,00.0,39.2,32.3,20.6,0000.0,0012.69,0005.79,0005.00
2022-09-19 07:37:00,,0825.7,4.99,0.00,30.5,29.2,00.0,39.2,32.4,20.5,0000.0,0012.14,0005.76,0005.00
2022-09-19 07:38:00,,0825.7,5.00,0.00,30.5,28.0,00.0,39.2,32.3,20.3,0000.0,0012.29,0005.80,0005.02
2022-09-19 07:39:00,,0825.6,5.00,0.00,30.5,27.1,00.0,39.1,32.2,20.6,0000.0,0012.34,0005.83,0005.05
2022-09-19 07:40:00,,0825.7,4.99,0.00,30.4,27.0,00.0,39.1,32.1,20.8,0000.0,0011.79,0005.85,0005.07
2022-09-19 07:41:00,,0825.7,5.00,0.00,30.3,27.2,00.0,39.1,31.9,20.9,0000.0,0011.45,0005.84,0005.06
2022-09-19 07:42:00,,0825.7,4.99,0.00,30.3,27.6,00.0,39.0,31.9,21.4,0000.0,0011.02,0005.84,0005.05
2022-09-19 07:43:00,,0825.7,4.99,0.00,30.2,27.8,00.0,39.0,31.9,21.3,0000.0,0010.79,0005.83,0005.06
2022-09-19 07:44:00,,0825.7,5.00,0.00,30.2,28.0,00.0,39.0,31.9,21.4,0000.0,0010.51,0005.85,0005.07
2022-09-19 07:45:00,,0825.7,5.00,0.00,30.2,28.2,00.0,39.0,31.9,21.2,0000.0,0010.34,0005.85,0005.07
2022-09-19 07:46:00,,0825.6,5.01,0.00,30.2,28.4,00.0,38.9,31.9,20.8,0000.2,0010.35,0005.85,0005.07
2022-09-19 07:47:00,,0825.6,4.99,0.00,30.2,28.5,00.0,39.0,32.0,20.4,0000.2,0010.62,0005.83,0005.05
2022-09-19 07:48:00,,0825.6,5.01,0.00,30.2,28.6,00.0,38.9,32.0,20.1,0000.4,0010.90,0005.82,0005.02
2022-09-19 07:49:00,,0825.6,4.99,0.00,30.2,28.6,00.0,39.0,32.0,19.4,0000.9,0011.25,0005.77,0004.97
2022-09-19 07:50:00,,0825.6,5.01,0.00,30.2,28.7,00.0,39.0,32.0,19.8,0000.3,0011.25,0005.71,0004.93
2022-09-19 07:51:00,,0825.5,4.99,0.00,30.2,28.7,00.0,39.0,32.0,19.9,0000.6,0011.93,0005.69,0004.90
2022-09-19 07:52:00,,0825.6,5.01,0.00,30.2,28.8,00.0,39.0,32.0,19.3,0001.0,0012.33,0005.65,0004.87
2022-09-19 07:53:00,,0825.5,4.99,0.00,30.2,28.8,00.0,39.0,32.0,19.0,0000.9,0012.23,0005.61,0004.82
2022-09-19 07:54:00,,0825.5,5.00,0.00,30.2,28.9,00.0,39.0,32.1,18.7,0000.2,0012.27,0005.57,0004.76
2022-09-19 07:55:00,,0825.5,5.01,0.00,30.3,28.9,00.0,39.0,32.1,18.4,0000.0,0012.04,0005.47,0004.70
2022-09-19 07:56:00,,0825.5,4.99,0.00,30.3,29.0,00.0,39.0,32.1,18.7,-000.0,0012.11,0005.44,0004.64
2022-09-19 07:57:00,,0825.5,5.00,0.00,30.3,29.0,00.0,39.0,32.1,18.7,0000.0,0011.80,0005.37,0004.60
2022-09-19 07:58:00,,0825.5,5.01,0.00,30.3,29.0,00.0,39.0,32.1,18.8,0000.0,0011.49,0005.30,0004.57
2022-09-19 07:59:00,,0825.5,4.99,0.00,30.3,29.0,00.0,39.0,32.2,18.7,0000.0,0010.73,0005.26,0004.54
